World > North America > United States > Mississippi > Southern

Hourly Southern, MS Regional Weather

Feedback E-mail the Weather

Quick WX

Southern, MS Weather Maps

°F °C°F °C
Southern Weather Map
UTC Time: 8/17/2022, 17:03
Your Time:

Southern, MS Regional Weather

Expires:202208171700;;203680
ASUS44 KJAN 171610
RWRMS 

MISSISSIPPI HOURLY WEATHER ROUNDUP
NATIONAL WEATHER SERVICE JACKSON MS
1100 AM CDT WED AUG 17 2022

NOTE: "FAIR: INDICATES FEW OR NO CLOUDS BELOW 12,000 FEET WITH NO
SIGNIFICANT WEATHER AND/OR OBSTRUCTIONS TO VISIBILITY.


MSZ059>079-171700-
SOUTH MISSISSIPPI
  
CITY           SKY/WX    TMP DP  RH WIND       PRES   REMARKS
BROOKHAVEN     FAIR      86  86 100 CALM      30.03R HX 112           
HATTIESBURG    SUNNY     89  77  67 NW5       29.99F HX 101           
LAUREL         MOSUNNY   86  77  73 NW6       30.00S HX  97           
MCCOMB         MOSUNNY   86  74  67 NW10      30.01S HX  94           
NATCHEZ        PTSUNNY   85  75  72 CALM      30.02R HX  93           
PINE BELT      MOSUNNY   88  79  74 W8        30.01S HX 103           
$$


SKY/WX - Weather  TMP - Temperature  DP - Dew Point  RH - Humidity
WIND - Wind Direction/Speed PRES - Barometric Pressure VSB - Visibility
WCI - Wind Chill Index E13G22 Wind - East Wind 13 mph/Gusts of 22 mph

Trending Headlines

Southern Radar Loop



Southern Quick Facts


National Two Day Weather Forecast


E-mail the Southern Weather Forecast

Voice your opinion or tell us about page issues...